Weather History for KAST - March, 2014

Change the Weather History Date:

Tuesday, March 4, 2014

  Actual Average Record
Temperature  
Mean Temperature 52 °F 45 °F  
Max Temperature 55 °F 53 °F 68 °F (1937)
Min Temperature 49 °F 38 °F 27 °F (1955)
Degree Days  
Heating Degree Days 13 20  
Month to date heating degree days 63 80  
Since 1 July heating degree days 3492 3422  
Cooling Degree Days 0 0  
Month to date cooling degree days 0 0  
Year to date cooling degree days 0 0  
Growing Degree Days 2 (Base 50)    
Moisture  
Dew Point 48 °F    
Average Humidity 85    
Maximum Humidity 93    
Minimum Humidity 77    
Precipitation  
Precipitation 0.15 in 0.26 in 3.09 in (1950)
Month to date precipitation 1.06 1.05  
Year to date precipitation 14.82 18.44  
Sea Level Pressure  
Sea Level Pressure 29.93 in    
Wind  
Wind Speed 10 mph (SSW)    
Max Wind Speed 21 mph    
Max Gust Speed 30 mph    
Visibility 9 miles    
Events Rain    
T = Trace of Precipitation, MM = Missing Value Source: NWS Daily Summary

Daily Weather History Graph

Daily Weather History Graph

Search for Another Location

Airport or City:

Trip Planner

Search our weather history database for the weather conditions in past years. The results will help you decide how hot, cold, wet, or windy it might be!

Date:

Astronomy

Mar. 04, 2014 Rise Set
Actual Time 6:48 AM PST 6:06 PM PST
Civil Twilight 6:18 AM PST 6:36 PM PST
Nautical Twilight 5:44 AM PST 7:10 PM PST
Astronomical Twilight 5:09 AM PST 7:45 PM PST
Moon 8:24 AM PST (3/4) 10:35 PM PST (3/4)
Length of Visible Light 12h 17m
Length of Day
11h 17m
Waxing Crescent, 15% of the Moon is Illuminated
Mar 4
Waxing Crescent
Mar 8
First Quarter
Mar 16
Full
Mar 23
Last Quarter
Mar 30
New

Hourly Weather History & Observations

Time (PST) Temp. Dew Point Humidity Pressure Visibility Wind Dir Wind Speed Gust Speed Precip Events Conditions
12:03 AM 50.0 °F 46.9 °F 89% 29.95 in 10.0 mi SSW 11.5 mph - 0.00 in Rain Light Rain
12:40 AM 50.0 °F 46.9 °F 89% 29.95 in 7.0 mi SW 11.5 mph - 0.00 in Rain Light Rain
12:55 AM 48.9 °F 46.9 °F 93% 29.95 in 5.0 mi SSW 9.2 mph - 0.03 in Rain Light Rain
1:29 AM 48.9 °F 46.0 °F 90% 29.96 in 10.0 mi SSW 10.4 mph - 0.00 in   Overcast
1:37 AM 48.9 °F 46.0 °F 90% 29.97 in 10.0 mi SSW 11.5 mph - 0.00 in   Overcast
1:55 AM 48.9 °F 46.0 °F 90% 29.97 in 10.0 mi SSW 12.7 mph 19.6 mph 0.00 in   Overcast
2:55 AM 48.9 °F 46.0 °F 90% 29.96 in 10.0 mi SSW 12.7 mph 18.4 mph N/A   Overcast
3:42 AM 48.9 °F 45.0 °F 86% 29.96 in 10.0 mi SSW 13.8 mph 23.0 mph 0.00 in Rain Light Rain
3:53 AM 48.2 °F 44.6 °F 87% 29.96 in 10.0 mi SSW 13.8 mph 21.9 mph 0.00 in Rain Light Rain
3:55 AM 48.9 °F 45.0 °F 86% 29.96 in 10.0 mi South 11.5 mph 21.9 mph 0.00 in Rain Light Rain
4:55 AM 48.9 °F 45.0 °F 86% 29.95 in 10.0 mi SSW 8.1 mph - 0.00 in Rain Light Rain
5:38 AM 48.9 °F 45.0 °F 86% 29.95 in 10.0 mi SSW 10.4 mph - 0.00 in   Overcast
5:55 AM 48.9 °F 45.0 °F 86% 29.95 in 10.0 mi SSW 11.5 mph - 0.00 in   Overcast
6:39 AM 48.9 °F 45.0 °F 86% 29.96 in 10.0 mi SSW 8.1 mph - N/A   Overcast
6:46 AM 48.9 °F 45.0 °F 86% 29.96 in 10.0 mi South 9.2 mph - N/A   Overcast
6:55 AM 48.9 °F 45.0 °F 86% 29.96 in 10.0 mi South 11.5 mph - 0.00 in Rain Light Rain
7:55 AM 50.0 °F 45.0 °F 83% 29.97 in 9.0 mi South 11.5 mph - 0.00 in Rain Light Rain
8:11 AM 50.0 °F 46.0 °F 86% 29.97 in 10.0 mi SSW 12.7 mph 21.9 mph 0.01 in   Overcast
8:21 AM 51.1 °F 46.0 °F 83% 29.97 in 10.0 mi SSW 12.7 mph 23.0 mph 0.01 in   Overcast
8:52 AM 51.8 °F 46.4 °F 82% 29.97 in 6.0 mi South 11.5 mph - 0.02 in Rain Light Rain
8:55 AM 51.1 °F 46.0 °F 83% 29.97 in 4.0 mi SSW 10.4 mph - 0.03 in Rain Light Rain
9:03 AM 50.0 °F 46.0 °F 86% 29.97 in 3.0 mi South 11.5 mph - 0.02 in Rain Rain
9:14 AM 51.1 °F 46.9 °F 86% 29.98 in 5.0 mi SSW 15.0 mph 21.9 mph 0.03 in Rain Rain
9:50 AM 51.8 °F 46.4 °F 82% 29.98 in 10.0 mi SSW 15.0 mph 24.2 mph 0.04 in   Overcast
9:55 AM 51.1 °F 46.9 °F 86% 29.98 in 10.0 mi SSW 17.3 mph 23.0 mph 0.04 in   Overcast
10:55 AM 54.0 °F 48.9 °F 83% 29.96 in 10.0 mi SSW 16.1 mph 24.2 mph N/A   Mostly Cloudy
11:05 AM 54.0 °F 48.9 °F 83% 29.95 in 10.0 mi SSW 15.0 mph 25.3 mph N/A   Mostly Cloudy
11:20 AM 54.0 °F 48.9 °F 83% 29.96 in 10.0 mi SSW 16.1 mph 25.3 mph N/A   Mostly Cloudy
11:44 AM 54.0 °F 48.0 °F 80% 29.96 in 10.0 mi SSW 12.7 mph 26.5 mph N/A   Scattered Clouds
11:55 AM 55.0 °F 48.9 °F 80% 29.96 in 10.0 mi SSW 15.0 mph 20.7 mph N/A   Mostly Cloudy
12:55 PM 54.0 °F 48.9 °F 83% 29.97 in 10.0 mi SSW 13.8 mph 25.3 mph N/A   Overcast
1:10 PM 54.0 °F 48.9 °F 83% 29.96 in 6.0 mi SSW 18.4 mph 25.3 mph N/A   Haze
1:24 PM 53.1 °F 48.9 °F 86% 29.96 in 10.0 mi SSW 15.0 mph 23.0 mph N/A   Overcast
1:29 PM 54.0 °F 48.9 °F 83% 29.96 in 10.0 mi SSW 15.0 mph 24.2 mph N/A   Overcast
1:39 PM 54.0 °F 48.9 °F 83% 29.96 in 10.0 mi SW 17.3 mph 25.3 mph N/A   Overcast
1:55 PM 54.0 °F 48.9 °F 83% 29.96 in 10.0 mi SSW 15.0 mph 26.5 mph N/A   Overcast
2:13 PM 54.0 °F 48.9 °F 83% 29.95 in 10.0 mi SW 17.3 mph 23.0 mph N/A   Overcast
2:24 PM 54.0 °F 50.0 °F 86% 29.95 in 2.0 mi SW 12.7 mph 23.0 mph 0.00 in Rain Light Rain
2:32 PM 53.1 °F 50.0 °F 89% 29.95 in 1.8 mi SSW 13.8 mph 19.6 mph 0.00 in Rain Light Rain
2:38 PM 53.1 °F 50.0 °F 89% 29.96 in 3.0 mi SSW 10.4 mph 19.6 mph 0.00 in Rain Light Rain
2:55 PM 53.1 °F 50.0 °F 89% 29.95 in 3.0 mi SSW 11.5 mph 20.7 mph 0.01 in Rain Light Rain
3:07 PM 53.1 °F 50.0 °F 89% 29.95 in 4.0 mi SSW 10.4 mph - 0.00 in Rain Light Rain
3:55 PM 53.1 °F 48.9 °F 86% 29.94 in 10.0 mi SSW 12.7 mph 17.3 mph 0.00 in   Overcast
4:15 PM 53.1 °F 50.0 °F 89% 29.94 in 10.0 mi SSW 11.5 mph - N/A   Overcast
4:24 PM 53.1 °F 50.0 °F 89% 29.94 in 10.0 mi SSW 10.4 mph 19.6 mph N/A   Overcast
4:32 PM 53.1 °F 50.0 °F 89% 29.93 in 10.0 mi SW 10.4 mph 18.4 mph N/A   Overcast
4:55 PM 53.1 °F 48.9 °F 86% 29.92 in 10.0 mi SSW 8.1 mph - N/A   Overcast
5:55 PM 53.1 °F 50.0 °F 89% 29.91 in 10.0 mi Variable 4.6 mph - N/A   Overcast
6:55 PM 54.0 °F 50.0 °F 86% 29.91 in 10.0 mi South 5.8 mph - N/A   Overcast
7:04 PM 54.0 °F 50.0 °F 86% 29.91 in 10.0 mi South 5.8 mph - N/A   Overcast
7:35 PM 54.0 °F 50.0 °F 86% 29.89 in 10.0 mi South 4.6 mph - N/A   Overcast
7:55 PM 53.1 °F 48.9 °F 86% 29.89 in 10.0 mi East 6.9 mph - N/A   Overcast
8:43 PM 52.0 °F 48.9 °F 89% 29.88 in 10.0 mi East 3.5 mph - N/A   Overcast
8:55 PM 52.0 °F 48.9 °F 89% 29.87 in 10.0 mi Calm Calm - N/A   Overcast
9:55 PM 55.0 °F 50.0 °F 83% 29.84 in 9.0 mi South 9.2 mph 19.6 mph 0.02 in Rain Light Rain
10:21 PM 54.0 °F 50.0 °F 86% 29.83 in 10.0 mi SE 5.8 mph - 0.00 in Rain Light Rain
10:50 PM 53.6 °F 50.0 °F 88% 29.81 in 10.0 mi East 6.9 mph - 0.00 in   Overcast
10:55 PM 52.0 °F 48.9 °F 89% 29.81 in 10.0 mi East 5.8 mph - 0.00 in Rain Light Rain
11:11 PM 52.0 °F 50.0 °F 93% 29.79 in 10.0 mi Variable 3.5 mph - 0.01 in Rain Light Rain
11:55 PM 50.0 °F 48.0 °F 93% 29.76 in 7.0 mi NE 3.5 mph - 0.02 in Rain Light Rain